Regional Weather Roundup
Issued by NWS

Home | Current Version | Previous Version | Text Only | Print | Product List | Glossary Off
Versions: 1 2 3 4 5 6 7 8 9 10 11 12 13 14 15 16 17 18 19 20 21 22 23 24 25 26 27 28 29 30 31 32 33 34 35 36 37 38 39 40 41 42 43 44 45 46 47 48 49 50

000
ASUS43 KLSX 211507
RWRMO

WEATHER SUMMARY FOR MISSOURI
NATIONAL WEATHER SERVICE SPRINGFIELD MO
900 AM CST SUN DEC 21 2014

NOTE: "FAIR" INDICATES FEW OR NO CLOUDS BELOW 12,000 FEET WITH NO
       SIGNIFICANT WEATHER AND/OR OBSTRUCTIONS TO VISIBILITY.
       CURRENT SKY AND/OR WEATHER CONDITIONS ARE NOT AVAILABLE FOR
       CHILLICOTHE AND FARMINGTON.

MOZ001>031-035>038-043-044-053-054-211600-
...NORTHERN AND WESTERN MISSOURI...

CITY           SKY/WX    TMP DP  RH WIND       PRES   REMARKS
KANSAS CTY INT DRIZZLE   39  37  92 S13       30.00F
KANSAS C DTWN  CLOUDY    41  37  86 S9        30.02F
LEE`S SUMMIT   CLOUDY    40  38  93 S9        30.03F FOG
ST JOSEPH      CLOUDY    39  36  89 S16       30.00F
CHILLICOTHE      N/A     41  37  86 S9        30.05F
KIRKSVILLE     CLOUDY    40  36  86 S9        30.07F

$$
MOZ066>068-077>081-088>096-101>105-211600-
...SOUTHWEST MISSOURI...

CITY           SKY/WX    TMP DP  RH WIND       PRES   REMARKS
SPRINGFIELD    CLOUDY    40  38  93 S13       30.09S FOG

$$
MOZ032>034-039>042-045>050-055>058-069>072-211600-
...CENTRAL MISSOURI...

CITY           SKY/WX    TMP DP  RH WIND       PRES   REMARKS
COLUMBIA       CLOUDY    41  36  82 SE10      30.11F
JEFFERSON CITY CLOUDY    42  36  79 SE7       30.14S
ROLLA          CLOUDY    39  34  82 S9        30.13S
SEDALIA        CLOUDY    43  36  76 S13       30.09S
WHITEMAN AFB   CLOUDY    40  38  92 S12       30.07S
WARRENSBURG    CLOUDY    39  37  93 SE8       30.07S FOG
OSAGE BEACH    CLOUDY    43  34  70 SE7       30.12S

$$
MOZ051-052-059>065-211600-
...EAST CENTRAL MISSOURI...

CITY           SKY/WX    TMP DP  RH WIND       PRES   REMARKS
ST LOUIS INTL  CLOUDY    41  32  70 SE10      30.21R
SPIRIT OF STL  CLOUDY    41  33  73 SE6       30.18F
ST CHARLES     CLOUDY    39  34  82 SE12      30.20R

$$
MOZ072>076-082>087-097>100-106>115-211600-
...SOUTH CENTRAL AND SOUTHEAST MISSOURI...

CITY           SKY/WX    TMP DP  RH WIND       PRES   REMARKS
CAPE GIRARDEAU MOSUNNY   33  30  88 E3        30.24F
FARMINGTON     CLOUDY    37  32  81 E5        30.21S
POPLAR BLUFF   CLOUDY    37  29  72 CALM      30.22S
WEST PLAINS    CLOUDY    38  34  85 SE7       30.15F

$$


USA.gov is the U.S. government's official web portal to all federal, state and local government web resources and services.